period_start,C,m1,H,J0,J1,J2,J3,J4,J5,JA,JB,JC,JD,JJ,JK,JN,#
2014-09-29 00:04:54,0.00,0.09,0.00,16.39,22.92,26.04,9.87,39.58,1015.04,2055.00,3523.07,3327.27,3605.05,499.79,507.08,8.53,0000 0000 0000 0000 000000
2014-09-29 00:09:56,0.00,0.09,0.00,16.42,22.92,26.10,9.94,39.80,1015.05,2055.01,3523.01,3327.18,3605.02,499.88,507.16,8.57,0000 0000 0000 0000 000000
2014-09-29 00:14:57,-0.00,0.09,0.00,16.42,22.92,26.05,9.95,39.81,1015.01,2055.03,3523.02,3327.24,3605.03,500.63,507.90,8.61,0000 0000 0000 0000 000000
2014-09-29 00:19:59,0.00,0.09,0.00,16.49,22.92,26.05,9.79,39.65,1014.99,2055.02,3523.01,3327.15,3605.01,499.73,506.89,8.65,0000 0000 0000 0000 000000
2014-09-29 00:25:00,0.00,0.09,0.00,16.43,22.93,26.08,9.83,39.67,1014.98,2055.02,3523.00,3327.09,3605.00,499.57,506.96,8.69,0000 0000 0000 0000 000000
2014-09-29 00:30:01,0.00,0.10,0.00,16.33,22.94,26.09,9.89,39.74,1014.77,2055.02,3522.98,3327.02,3605.00,499.97,507.29,8.73,0000 0000 0000 0000 000000
2014-09-29 00:35:02,0.00,0.10,0.00,16.39,22.94,26.12,9.72,39.49,1014.69,2055.03,3522.98,3327.02,3605.00,499.74,506.87,8.78,0000 0000 0000 0000 000000
2014-09-29 00:40:03,0.00,0.10,0.00,16.38,22.94,26.11,9.95,39.50,1014.69,2055.07,3522.96,3327.02,3605.00,500.21,507.40,8.82,0000 0000 0000 0000 000000
2014-09-29 00:45:05,-0.00,0.10,0.00,16.32,22.94,26.07,9.93,39.63,1014.69,2055.04,3522.91,3327.01,3604.99,500.03,507.31,8.86,0000 0000 0000 0000 000000
2014-09-29 00:50:06,0.00,0.10,0.00,16.34,22.94,26.02,9.80,39.61,1014.68,2055.03,3522.63,3327.00,3604.96,499.55,506.81,8.90,0000 0000 0000 0000 000000
2014-09-29 00:55:08,0.01,0.10,0.00,16.37,22.94,26.04,9.89,39.54,1014.69,2055.07,3522.49,3327.01,3604.97,500.15,507.33,8.94,0000 0000 0000 0000 000000
2014-09-29 01:00:09,0.00,0.10,0.00,16.39,22.94,26.02,9.94,39.62,1014.67,2055.09,3522.38,3327.01,3604.97,500.09,507.15,8.99,0000 0000 0000 0000 000000
2014-09-29 01:05:10,0.01,0.10,0.00,16.47,22.93,26.05,9.81,39.47,1014.69,2055.14,3522.25,3327.01,3604.97,499.63,506.42,9.03,0000 0000 0000 0000 000000
2014-09-29 01:10:12,0.01,0.10,0.00,16.48,22.92,26.06,9.78,39.61,1014.69,2055.18,3522.04,3327.00,3604.88,499.77,506.72,9.07,0000 0000 0000 0000 000000
2014-09-29 01:15:13,0.02,0.10,0.00,16.48,22.92,26.04,9.82,39.35,1014.69,2055.22,3522.01,3327.00,3604.71,499.87,506.67,9.11,0000 0000 0000 0000 000000
2014-09-29 01:20:14,-0.00,0.10,0.00,16.54,22.92,26.01,9.94,39.59,1014.71,2055.19,3522.00,3327.00,3604.26,499.94,506.82,9.15,0000 0000 0000 0000 000000
2014-09-29 01:25:15,0.17,0.10,0.00,16.54,22.92,26.00,9.80,39.50,1014.75,2055.22,3520.09,3325.93,3603.07,499.50,506.31,9.20,0000 0000 0000 0000 000000
2014-09-29 01:30:16,0.06,0.11,0.00,16.57,22.92,26.05,9.84,39.57,1014.75,2055.23,3517.02,3324.07,3601.33,499.93,506.68,9.24,0000 0000 0000 0000 000000
2014-09-29 01:35:17,0.00,0.11,0.00,16.49,22.92,26.02,9.91,39.65,1014.72,2055.15,3516.73,3324.01,3601.06,500.08,507.03,9.28,0000 0000 0000 0000 000000
2014-09-29 01:40:18,0.01,0.11,0.00,16.52,22.92,25.93,9.79,39.54,1014.71,2055.20,3516.40,3324.00,3601.02,499.77,506.68,9.32,0000 0000 0000 0000 000000
2014-09-29 01:45:20,0.03,0.11,0.00,16.52,22.92,26.00,9.94,39.53,1014.70,2055.34,3516.10,3324.00,3601.00,499.86,506.76,9.36,0000 0000 0000 0000 000000
2014-09-29 01:50:22,0.00,0.11,0.00,16.48,22.92,26.04,9.79,39.47,1014.68,2055.48,3516.02,3323.99,3601.00,499.79,506.73,9.40,0000 0000 0000 0000 000000
2014-09-29 01:55:23,-0.02,0.11,0.00,16.45,22.92,25.96,9.91,39.55,1014.67,2055.31,3516.00,3323.98,3600.97,499.72,506.69,9.45,0000 0000 0000 0000 000000
2014-09-29 02:00:24,0.00,0.11,0.00,16.41,22.92,25.89,9.86,39.65,1014.66,2055.20,3515.98,3323.86,3600.63,500.19,507.19,9.49,0000 0000 0000 0000 000000
2014-09-29 02:05:26,0.04,0.11,0.00,16.44,22.92,25.92,9.80,39.52,1014.66,2055.32,3515.84,3323.58,3600.20,499.76,506.63,9.53,0000 0000 0000 0000 000000
2014-09-29 02:10:27,0.03,0.11,0.00,16.46,22.92,25.82,9.97,39.67,1014.67,2055.40,3515.33,3323.14,3600.03,500.56,507.72,9.57,0000 0000 0000 0000 000000
2014-09-29 02:15:28,0.00,0.11,0.00,16.36,22.92,25.66,9.95,39.72,1014.66,2055.48,3515.08,3323.05,3600.00,500.15,507.17,9.61,0000 0000 0000 0000 000000
2014-09-29 02:20:29,-0.01,0.11,0.00,16.35,22.92,25.65,9.95,39.63,1014.66,2055.30,3515.00,3323.00,3599.99,499.79,506.94,9.66,0000 0000 0000 0000 000000
2014-09-29 02:25:30,0.00,0.11,0.00,16.36,22.90,25.63,9.83,39.59,1014.66,2055.48,3514.98,3322.99,3599.96,499.82,506.95,9.70,0000 0000 0000 0000 000000
2014-09-29 02:30:32,0.03,0.11,0.00,16.31,22.90,25.54,9.91,39.48,1014.65,2055.53,3514.66,3322.98,3599.63,500.09,507.26,9.74,0000 0000 0000 0000 000000
2014-09-29 02:35:33,0.03,0.11,0.00,16.25,22.89,25.49,9.92,39.53,1014.63,2055.64,3514.04,3322.89,3599.07,500.29,507.62,9.78,0000 0000 0000 0000 000000
2014-09-29 02:40:34,0.02,0.12,0.00,16.31,22.89,25.48,9.85,39.51,1014.47,2055.80,3514.00,3322.38,3599.01,499.73,506.85,9.82,0000 0000 0000 0000 000000
2014-09-29 02:45:35,0.02,0.12,0.00,16.25,22.89,25.48,9.88,39.47,1014.26,2055.86,3513.98,3322.06,3599.00,499.82,506.84,9.86,0000 0000 0000 0000 000000
2014-09-29 02:50:36,0.01,0.12,0.00,16.22,22.89,25.35,9.80,39.43,1014.22,2055.92,3513.51,3322.01,3598.85,499.66,506.92,9.91,0000 0000 0000 0000 000000
2014-09-29 02:55:37,0.02,0.12,0.00,16.40,22.89,25.58,9.89,39.55,1014.23,2055.95,3513.05,3322.00,3598.20,500.07,506.94,9.95,0000 0000 0000 0000 000000
2014-09-29 03:00:39,0.00,0.12,0.00,16.43,22.89,25.70,9.89,39.51,1014.19,2055.97,3513.00,3321.97,3598.02,500.10,506.97,9.99,0000 0000 0000 0000 000000
2014-09-29 03:05:40,0.02,0.12,0.00,16.45,22.88,25.79,9.89,39.55,1014.19,2055.97,3512.90,3321.60,3597.99,499.87,506.57,10.03,0000 0000 0000 0000 000000
2014-09-29 03:10:41,0.02,0.12,0.00,16.40,22.87,25.69,9.96,39.72,1014.18,2055.97,3512.22,3321.04,3597.83,500.28,506.99,10.07,0000 0000 0000 0000 000000
2014-09-29 03:15:42,0.01,0.12,0.00,16.38,22.87,25.62,9.84,39.42,1014.18,2055.98,3512.00,3321.00,3597.18,499.84,506.75,10.12,0000 0000 0000 0000 000000
2014-09-29 03:20:44,0.00,0.12,0.00,16.22,22.87,25.54,9.87,39.46,1014.18,2055.98,3511.87,3321.00,3597.01,499.69,506.99,10.16,0000 0000 0000 0000 000000
2014-09-29 03:25:45,0.03,0.12,0.00,16.30,22.87,25.47,9.87,39.48,1014.18,2055.98,3511.18,3320.55,3596.86,500.19,507.17,10.20,0000 0000 0000 0000 000000
2014-09-29 03:30:46,0.02,0.12,0.00,16.36,22.87,25.38,9.80,39.42,1014.17,2055.99,3511.00,3320.05,3596.16,499.82,506.47,10.24,0000 0000 0000 0000 000000
2014-09-29 03:35:47,0.01,0.12,0.00,16.30,22.87,25.31,9.83,39.42,1014.15,2055.97,3510.41,3320.00,3595.99,500.05,507.14,10.28,0000 0000 0000 0000 000000
2014-09-29 03:40:49,0.01,0.12,0.00,16.36,22.87,25.39,9.79,39.46,1014.13,2055.99,3510.01,3319.83,3595.76,500.17,506.95,10.32,0000 0000 0000 0000 000000
2014-09-29 03:45:50,0.03,0.13,0.00,16.28,22.87,25.35,9.85,39.43,1014.11,2055.99,3509.82,3319.16,3595.10,500.05,506.97,10.37,0000 0000 0000 0000 000000
2014-09-29 03:50:52,0.01,0.13,0.00,16.27,22.87,25.30,9.73,39.38,1014.04,2055.97,3509.04,3318.98,3594.94,499.25,506.19,10.41,0000 0000 0000 0000 000000
2014-09-29 03:55:53,0.04,0.13,0.00,16.32,22.85,25.22,9.90,39.47,1014.02,2055.98,3508.83,3318.52,3594.23,500.28,507.06,10.45,0000 0000 0000 0000 000000
2014-09-29 04:00:54,0.01,0.13,0.00,16.29,22.85,25.29,9.91,39.47,1013.90,2055.99,3508.16,3318.03,3593.99,500.01,506.82,10.49,0000 0000 0000 0000 000000
2014-09-29 04:05:56,0.01,0.13,0.00,16.25,22.84,25.33,9.83,39.59,1013.77,2055.98,3507.87,3317.97,3593.43,499.99,506.90,10.53,0000 0000 0000 0000 000000
2014-09-29 04:10:57,0.04,0.13,0.00,16.28,22.84,25.21,9.89,39.62,1013.72,2055.98,3507.09,3317.29,3593.00,500.26,506.86,10.58,0000 0000 0000 0000 000000
2014-09-29 04:15:58,0.01,0.13,0.00,16.36,22.84,25.21,9.88,39.98,1013.70,2055.99,3506.93,3317.00,3592.79,500.09,506.97,10.62,0000 0000 0000 0000 000000
2014-09-29 04:21:00,0.03,0.13,0.00,16.35,22.84,25.41,9.95,40.04,1013.70,2055.99,3506.12,3316.87,3592.06,500.15,506.81,10.66,0000 0000 0000 0000 000000
2014-09-29 04:26:01,0.03,0.14,0.00,16.26,22.84,25.44,9.84,39.98,1013.69,2055.99,3505.73,3316.10,3591.85,500.16,506.95,10.70,0000 0000 0000 0000 000000
2014-09-29 04:31:02,0.02,0.14,0.00,16.33,22.84,25.26,9.80,39.85,1013.69,2055.98,3505.04,3315.98,3591.06,499.86,506.61,10.74,0000 0000 0000 0000 000000
2014-09-29 04:36:03,0.04,0.14,0.00,16.34,22.84,25.24,9.90,39.73,1013.69,2055.98,3504.60,3315.26,3590.76,499.68,506.49,10.79,0000 0000 0000 0000 000000
2014-09-29 04:41:04,0.01,0.14,0.00,16.32,22.84,25.30,9.96,39.63,1013.69,2055.99,3504.01,3315.00,3590.07,499.99,506.61,10.83,0000 0000 0000 0000 000000
2014-09-29 04:46:06,0.02,0.14,0.00,16.36,22.84,25.36,9.85,39.68,1013.69,2055.99,3503.70,3314.76,3589.92,499.69,506.35,10.87,0000 0000 0000 0000 000000
2014-09-29 04:51:07,0.03,0.14,0.00,16.38,22.84,25.46,9.88,39.46,1013.67,2055.99,3503.02,3314.08,3589.23,500.39,507.09,10.91,0000 0000 0000 0000 000000
2014-09-29 04:56:08,0.01,0.14,0.00,16.27,22.84,25.36,9.90,39.58,1013.67,2055.99,3502.64,3313.98,3588.98,500.16,506.99,10.95,0000 0000 0000 0000 000000
2014-09-29 05:01:09,0.04,0.14,0.00,16.31,22.84,25.37,9.87,39.77,1013.64,2055.99,3502.01,3313.28,3588.22,499.67,506.36,10.99,0000 0000 0000 0000 000000
2014-09-29 05:06:11,0.01,0.15,0.00,16.38,22.84,25.38,9.92,39.55,1013.60,2055.99,3501.60,3313.00,3587.97,500.24,506.80,11.04,0000 0000 0000 0000 000000
2014-09-29 05:11:12,0.04,0.15,0.00,16.35,22.84,25.43,9.75,39.53,1013.50,2055.99,3501.00,3312.58,3587.28,499.34,505.89,11.08,0000 0000 0000 0000 000000
2014-09-29 05:16:13,0.02,0.15,0.00,16.30,22.84,25.28,9.85,39.52,1013.47,2055.99,3500.49,3312.02,3586.99,499.99,506.46,11.12,0000 0000 0000 0000 000000
2014-09-29 05:21:14,0.01,0.15,0.00,16.37,22.85,25.20,9.87,39.45,1013.33,2055.99,3499.99,3311.94,3586.40,500.02,506.47,11.16,0000 0000 0000 0000 000000
2014-09-29 05:26:15,0.04,0.15,0.00,16.40,22.86,25.10,9.77,39.62,1013.27,2055.99,3499.23,3311.14,3585.98,499.65,505.84,11.20,0000 0000 0000 0000 000000
2014-09-29 05:31:16,0.02,0.15,0.00,16.45,22.87,25.11,9.78,39.42,1013.23,2055.99,3498.98,3310.98,3585.33,499.79,506.00,11.25,0000 0000 0000 0000 000000
2014-09-29 05:36:18,0.03,0.15,0.00,16.84,22.87,25.24,9.71,39.32,1013.22,2055.99,3498.40,3310.53,3585.00,499.83,505.46,11.29,0000 0000 0000 0000 000000
2014-09-29 05:41:19,0.02,0.15,0.00,17.30,22.88,25.69,9.78,39.46,1013.23,2055.98,3497.97,3310.02,3584.54,499.98,504.77,11.33,0000 0000 0000 0000 000000
2014-09-29 05:46:20,0.04,0.16,0.00,17.54,22.89,25.85,9.70,39.60,1013.26,2055.97,3497.20,3309.50,3583.99,499.45,503.84,11.37,0000 0000 0000 0000 000000
2014-09-29 05:51:22,0.02,0.16,0.00,17.77,22.92,26.02,9.79,39.42,1013.23,2055.97,3496.82,3309.00,3583.25,500.18,504.05,11.41,0000 0000 0000 0000 000000
2014-09-29 05:56:22,0.02,0.16,0.00,17.96,22.95,26.07,9.80,39.32,1013.32,2055.86,3496.05,3308.25,3582.95,500.45,504.12,11.45,0000 0000 0000 0000 000000
2014-09-29 06:01:24,-0.01,0.16,0.00,18.20,22.98,25.95,9.83,39.33,1013.34,2055.49,3495.49,3307.88,3582.12,500.44,503.81,11.50,0000 0000 0000 0000 000000
2014-09-29 06:06:25,0.02,0.16,0.00,18.38,23.03,25.97,9.79,39.27,1013.33,2055.09,3494.81,3307.07,3581.38,499.98,502.85,11.54,0000 0000 0000 0000 000000
2014-09-29 06:11:26,0.04,0.16,0.00,18.52,23.08,25.98,9.90,39.30,1013.31,2055.01,3493.99,3306.48,3580.74,500.44,502.98,11.58,0000 0000 0000 0000 000000
2014-09-29 06:16:28,0.04,0.16,0.00,18.71,23.14,26.05,9.72,39.43,1013.41,2055.00,3493.18,3305.72,3579.90,500.04,502.47,11.62,0000 0000 0000 0000 000000
2014-09-29 06:21:29,0.04,0.16,0.00,18.91,23.21,26.15,9.66,39.43,1013.51,2054.95,3492.34,3304.89,3578.96,499.91,501.97,11.66,0000 0000 0000 0000 000000
2014-09-29 06:26:30,-0.01,0.17,0.00,19.00,23.29,26.24,9.77,39.51,1013.54,2054.58,3491.48,3303.99,3577.99,500.01,502.02,11.71,0000 0000 0000 0000 000000
2014-09-29 06:31:31,0.03,0.17,0.00,19.15,23.37,26.34,9.66,39.42,1013.67,2054.04,3490.46,3303.07,3577.01,499.84,501.45,11.75,0000 0000 0000 0000 000000
2014-09-29 06:36:32,0.05,0.17,0.00,19.35,23.45,26.45,9.66,39.48,1013.67,2053.98,3489.54,3302.16,3576.03,499.80,501.43,11.79,0000 0000 0000 0000 000000
2014-09-29 06:41:34,-0.02,0.17,0.00,19.53,23.54,26.56,9.70,39.50,1013.69,2053.49,3488.49,3301.20,3574.92,500.05,501.23,11.83,0000 0000 0000 0000 000000
2014-09-29 06:46:35,0.04,0.17,0.00,19.75,23.63,26.70,9.63,39.23,1013.69,2053.02,3487.41,3300.16,3573.84,500.04,500.95,11.87,0000 0000 0000 0000 000000
2014-09-29 06:51:37,0.06,0.17,0.00,19.83,23.73,26.83,9.66,39.60,1013.69,2052.99,3486.40,3299.18,3572.80,499.99,500.64,11.92,0000 0000 0000 0000 000000
2014-09-29 06:56:38,-0.02,0.17,0.00,19.85,23.84,26.95,9.63,39.44,1013.69,2052.51,3485.42,3298.24,3571.74,500.17,500.78,11.96,0000 0000 0000 0000 000000
2014-09-29 07:01:39,0.04,0.17,0.00,19.96,23.94,27.09,9.65,39.40,1013.69,2052.01,3484.43,3297.29,3570.64,499.75,500.22,12.00,0000 0000 0000 0000 000000
2014-09-29 07:06:40,0.04,0.17,0.00,19.98,24.05,27.20,9.70,39.33,1013.69,2051.88,3483.38,3296.33,3569.55,500.28,500.82,12.04,0000 0000 0000 0000 000000
2014-09-29 07:11:42,-0.01,0.17,0.00,19.93,24.15,27.32,9.68,39.35,1013.69,2051.15,3482.30,3295.30,3568.42,499.99,500.68,12.08,0000 0000 0000 0000 000000
2014-09-29 07:16:43,0.06,0.18,0.00,20.01,24.26,27.42,9.66,39.51,1013.69,2050.99,3481.27,3294.25,3567.39,500.02,500.42,12.12,0000 0000 0000 0000 000000
2014-09-29 07:21:44,0.01,0.18,0.00,20.08,24.36,27.53,9.69,39.33,1013.69,2050.68,3480.25,3293.24,3566.26,500.09,500.35,12.17,0000 0000 0000 0000 000000
2014-09-29 07:26:46,0.02,0.18,0.00,20.22,24.46,27.62,9.71,39.47,1013.70,2050.04,3479.17,3292.26,3565.13,500.06,500.08,12.21,0000 0000 0000 0000 000000
2014-09-29 07:31:47,0.05,0.18,0.00,20.35,24.57,27.72,9.69,39.52,1013.71,2049.91,3478.02,3291.14,3563.95,500.27,500.00,12.25,0000 0000 0000 0000 000000
2014-09-29 07:36:48,-0.02,0.18,0.00,20.42,24.67,27.83,9.66,39.55,1013.76,2049.14,3476.95,3290.10,3562.80,500.15,499.78,12.29,0000 0000 0000 0000 000000
2014-09-29 07:41:49,0.06,0.18,0.00,20.51,24.77,27.93,9.71,39.42,1013.75,2048.97,3475.91,3289.02,3561.66,500.19,499.65,12.33,0000 0000 0000 0000 000000
2014-09-29 07:46:50,-0.02,0.18,0.00,20.56,24.88,28.04,9.59,39.35,1013.72,2048.31,3474.79,3287.99,3560.47,499.39,498.86,12.38,0000 0000 0000 0000 000000
2014-09-29 07:51:52,0.05,0.18,0.00,20.66,24.98,28.15,9.61,39.33,1013.74,2047.99,3473.71,3286.95,3559.41,500.10,499.27,12.42,0000 0000 0000 0000 000000
2014-09-29 07:56:53,-0.02,0.18,0.00,20.84,25.07,28.25,9.63,39.23,1013.74,2047.43,3472.66,3285.92,3558.21,500.04,499.06,12.46,0000 0000 0000 0000 000000
2014-09-29 08:01:54,0.04,0.18,0.00,20.93,25.18,28.35,9.59,38.93,1013.86,2047.01,3471.64,3284.93,3557.18,499.69,498.64,12.50,0000 0000 0000 0000 000000
2014-09-29 08:06:55,0.05,0.19,0.00,21.06,25.28,28.44,9.63,39.13,1014.03,2047.00,3470.71,3284.03,3556.13,500.20,498.88,12.54,0000 0000 0000 0000 000000
2014-09-29 08:11:57,0.01,0.19,0.00,21.05,25.37,28.54,9.66,39.28,1014.11,2046.76,3469.86,3283.16,3555.16,500.04,498.76,12.58,0000 0000 0000 0000 000000
2014-09-29 08:16:58,-0.00,0.19,0.00,21.17,25.47,28.64,9.73,39.19,1014.13,2046.06,3468.89,3282.19,3554.09,500.27,498.72,12.63,0000 0000 0000 0000 000000
2014-09-29 08:22:00,0.05,0.19,0.00,21.35,25.57,28.72,9.63,39.11,1014.15,2045.94,3467.87,3281.21,3553.06,499.95,498.23,12.67,0000 0000 0000 0000 000000
2014-09-29 08:27:01,-0.03,0.19,0.00,21.83,25.67,28.77,9.62,38.95,1014.16,2045.28,3466.97,3280.36,3552.08,500.23,497.70,12.71,0000 0000 0000 0000 000000
2014-09-29 08:32:02,0.05,0.19,0.00,22.05,25.77,28.85,9.56,39.03,1014.17,2045.00,3466.08,3279.45,3551.12,500.14,497.25,12.75,0000 0000 0000 0000 000000
2014-09-29 08:37:04,0.01,0.19,0.00,22.19,25.87,28.93,9.56,38.92,1014.17,2044.77,3465.22,3278.68,3550.16,499.97,496.91,12.79,0000 0000 0000 0000 000000
2014-09-29 08:42:05,-0.01,0.19,0.00,22.26,25.95,29.02,9.54,38.95,1014.17,2044.06,3464.28,3277.79,3549.17,499.92,496.79,12.84,0000 0000 0000 0000 000000
2014-09-29 08:47:06,0.05,0.19,0.00,22.33,26.03,29.10,9.51,38.92,1014.17,2043.99,3463.38,3276.97,3548.23,499.75,496.37,12.88,0000 0000 0000 0000 000000
2014-09-29 08:52:07,-0.01,0.19,0.00,22.42,26.10,29.16,9.59,38.82,1014.17,2043.62,3462.64,3276.12,3547.39,499.83,496.38,12.92,0000 0000 0000 0000 000000
2014-09-29 08:57:08,0.01,0.19,0.00,22.49,26.17,29.19,9.51,38.81,1014.17,2043.05,3461.87,3275.41,3546.61,499.78,496.24,12.96,0000 0000 0000 0000 000000
2014-09-29 09:02:10,0.02,0.20,0.00,22.49,26.22,29.23,9.57,38.88,1014.17,2042.99,3461.05,3274.91,3545.94,500.06,496.38,13.00,0000 0000 0000 0000 000000
2014-09-29 09:07:11,0.05,0.20,0.00,22.54,26.27,29.25,9.58,38.87,1014.17,2042.96,3460.48,3274.11,3545.12,499.81,495.93,13.04,0000 0000 0000 0000 000000
2014-09-29 09:12:12,-0.03,0.20,0.00,22.57,26.31,29.26,9.55,38.93,1014.17,2042.50,3459.93,3273.66,3544.56,500.12,496.24,13.09,0000 0000 0000 0000 000000
2014-09-29 09:17:13,0.00,0.20,0.00,22.60,26.35,29.27,9.52,38.91,1014.17,2042.06,3459.13,3273.03,3544.00,499.80,496.05,13.13,0000 0000 0000 0000 000000
2014-09-29 09:22:14,0.03,0.20,0.00,22.63,26.38,29.28,9.57,39.01,1014.17,2042.01,3458.82,3272.69,3543.48,499.82,495.83,13.17,0000 0000 0000 0000 000000
2014-09-29 09:27:15,0.03,0.20,0.00,22.67,26.41,29.29,9.54,39.05,1014.17,2042.00,3458.04,3272.02,3542.93,500.25,496.27,13.21,0000 0000 0000 0000 000000
2014-09-29 09:32:17,0.02,0.20,0.00,22.70,26.44,29.30,9.53,38.95,1014.18,2041.96,3457.69,3271.79,3542.14,499.84,495.76,13.25,0000 0000 0000 0000 000000
2014-09-29 09:37:18,0.02,0.20,0.00,22.71,26.46,29.30,9.60,38.83,1014.18,2041.88,3457.03,3271.05,3541.91,500.06,496.07,13.30,0000 0000 0000 0000 000000
2014-09-29 09:42:19,0.00,0.20,0.00,22.71,26.47,29.31,9.53,38.88,1014.18,2041.58,3456.56,3270.94,3541.14,499.80,495.75,13.34,0000 0000 0000 0000 000000
2014-09-29 09:47:21,-0.02,0.20,0.00,22.75,26.50,29.32,9.49,38.84,1014.18,2041.15,3456.01,3270.19,3540.96,499.64,495.52,13.38,0000 0000 0000 0000 000000
2014-09-29 09:52:21,0.02,0.20,0.00,22.78,26.50,29.32,9.55,38.71,1014.18,2041.05,3455.52,3269.99,3540.24,500.12,495.92,13.42,0000 0000 0000 0000 000000
2014-09-29 09:57:23,0.02,0.20,0.00,22.80,26.52,29.33,9.51,38.95,1014.18,2041.01,3455.02,3269.69,3539.99,499.74,495.58,13.46,0000 0000 0000 0000 000000
2014-09-29 10:02:24,0.02,0.20,0.00,22.80,26.52,29.33,9.56,38.80,1014.18,2041.00,3454.83,3269.04,3539.59,500.09,495.98,13.51,0000 0000 0000 0000 000000
2014-09-29 10:07:25,0.02,0.20,0.00,22.84,26.53,29.34,9.54,38.86,1014.18,2041.00,3454.09,3269.00,3539.05,499.66,495.51,13.55,0000 0000 0000 0000 000000
2014-09-29 10:12:26,0.00,0.20,0.00,22.86,26.54,29.34,9.48,38.86,1014.18,2041.00,3454.00,3268.98,3539.00,499.54,495.25,13.59,0000 0000 0000 0000 000000
2014-09-29 10:17:27,0.03,0.20,0.00,22.85,26.55,29.34,9.52,38.79,1014.17,2041.00,3453.74,3268.50,3538.81,500.30,496.08,13.63,0000 0000 0000 0000 000000
2014-09-29 10:22:28,0.03,0.21,0.00,22.87,26.55,29.34,9.50,38.63,1014.16,2041.00,3453.08,3268.03,3538.16,499.83,495.47,13.67,0000 0000 0000 0000 000000
2014-09-29 10:27:29,0.00,0.21,0.00,22.88,26.55,29.34,9.55,38.95,1014.17,2041.00,3453.00,3268.01,3538.01,499.99,495.57,13.71,0000 0000 0000 0000 000000
2014-09-29 10:32:30,0.00,0.21,0.00,22.88,26.54,29.33,9.60,38.86,1014.15,2041.00,3452.94,3268.00,3538.00,500.24,495.94,13.76,0000 0000 0000 0000 000000
2014-09-29 10:37:31,0.02,0.21,0.00,22.91,26.52,29.33,9.58,38.67,1014.10,2041.00,3452.32,3267.97,3537.95,500.35,495.90,13.80,0000 0000 0000 0000 000000
2014-09-29 10:42:32,0.01,0.21,0.00,22.91,26.52,29.34,9.53,38.67,1014.03,2041.00,3452.01,3267.87,3537.76,499.52,495.25,13.84,0000 0000 0000 0000 000000
2014-09-29 10:47:33,0.03,0.21,0.00,22.91,26.52,29.36,9.64,38.90,1013.90,2041.00,3451.99,3267.26,3537.09,499.66,495.32,13.88,0000 0000 0000 0000 000000
2014-09-29 10:52:34,0.01,0.21,0.00,22.92,26.50,29.42,9.57,38.85,1013.95,2041.02,3451.87,3267.03,3537.01,499.91,495.44,13.92,0000 0000 0000 0000 000000
2014-09-29 10:57:35,0.01,0.21,0.00,22.93,26.50,29.39,9.60,38.63,1014.02,2041.01,3451.19,3267.00,3536.99,500.21,495.85,13.96,0000 0000 0000 0000 000000
2014-09-29 11:02:36,0.00,0.21,0.00,22.92,26.48,29.41,9.51,38.62,1013.83,2041.03,3451.00,3267.00,3536.95,500.19,495.53,14.01,0000 0000 0000 0000 000000
2014-09-29 11:07:38,0.02,0.21,0.00,22.92,26.47,29.44,9.53,38.64,1014.04,2041.03,3450.93,3266.97,3536.38,499.95,495.67,14.05,0000 0000 0000 0000 000000
2014-09-29 11:12:39,0.02,0.21,0.00,22.93,26.46,29.40,9.59,38.60,1014.10,2041.10,3450.47,3266.89,3536.04,500.60,496.12,14.09,0000 0000 0000 0000 000000
2014-09-29 11:17:40,0.02,0.21,0.00,22.92,26.45,29.40,9.53,38.67,1014.14,2041.10,3450.02,3266.24,3536.00,500.10,495.73,14.13,0000 0000 0000 0000 000000
2014-09-29 11:22:41,0.02,0.21,0.00,22.93,26.43,29.38,9.51,38.72,1013.95,2041.27,3450.00,3266.04,3536.00,499.82,495.36,14.17,0000 0000 0000 0000 000000
2014-09-29 11:27:42,0.03,0.21,0.00,22.94,26.42,29.33,9.54,38.68,1013.76,2041.48,3449.96,3266.00,3535.97,500.07,495.47,14.22,0000 0000 0000 0000 000000
2014-09-29 11:32:43,0.03,0.22,0.00,23.04,26.41,29.31,9.55,38.66,1013.77,2041.69,3449.37,3266.00,3535.61,500.19,495.43,14.26,0000 0000 0000 0000 000000
2014-09-29 11:37:44,0.00,0.22,0.00,23.05,26.40,29.31,9.52,38.67,1013.73,2041.72,3449.01,3265.98,3535.04,499.74,494.89,14.30,0000 0000 0000 0000 000000
2014-09-29 11:42:45,0.03,0.22,0.00,23.02,26.38,29.30,9.48,38.65,1013.70,2041.88,3448.98,3265.83,3535.00,499.90,495.14,14.34,0000 0000 0000 0000 000000
2014-09-29 11:47:47,0.02,0.22,0.00,23.03,26.37,29.27,9.48,38.60,1013.69,2041.88,3448.74,3265.32,3534.99,500.01,495.28,14.38,0000 0000 0000 0000 000000
2014-09-29 11:52:48,0.02,0.22,0.00,23.07,26.35,29.25,9.49,38.70,1013.70,2041.91,3448.05,3265.01,3534.60,499.92,495.19,14.42,0000 0000 0000 0000 000000
2014-09-29 11:57:49,0.01,0.22,0.00,23.07,26.35,29.25,9.55,38.72,1013.69,2041.95,3448.00,3265.00,3534.12,499.97,495.07,14.47,0000 0000 0000 0000 000000
2014-09-29 12:02:50,0.00,0.22,0.00,23.07,26.33,29.22,9.47,38.59,1013.70,2041.97,3447.97,3264.99,3534.01,499.82,495.04,14.51,0000 0000 0000 0000 000000
2014-09-29 12:07:51,0.01,0.22,0.00,23.03,26.32,29.22,9.48,38.61,1013.70,2041.97,3447.73,3264.98,3534.00,499.49,494.64,14.55,0000 0000 0000 0000 000000
2014-09-29 12:12:52,0.01,0.22,0.00,23.04,26.30,29.20,9.49,38.62,1013.69,2041.98,3447.21,3264.90,3534.00,499.75,494.86,14.59,0000 0000 0000 0000 000000
2014-09-29 12:17:53,0.02,0.22,0.00,23.04,26.30,29.17,9.52,38.59,1013.69,2041.99,3447.02,3264.62,3533.93,499.64,494.83,14.63,0000 0000 0000 0000 000000
2014-09-29 12:22:54,0.02,0.22,0.00,23.05,26.27,29.16,9.50,38.58,1013.69,2041.99,3446.98,3264.06,3533.27,500.00,495.18,14.68,0000 0000 0000 0000 000000
2014-09-29 12:27:56,0.01,0.22,0.00,23.00,26.27,29.14,9.52,38.54,1013.69,2041.99,3446.64,3264.01,3533.04,499.92,495.13,14.72,0000 0000 0000 0000 000000
2014-09-29 12:32:57,0.00,0.23,0.00,22.99,26.26,29.09,9.56,38.64,1013.69,2041.99,3446.10,3264.00,3533.00,499.75,495.11,14.76,0000 0000 0000 0000 000000
2014-09-29 12:37:58,0.00,0.23,0.00,22.93,26.25,28.97,9.50,38.66,1013.69,2041.99,3446.00,3263.97,3532.96,499.89,494.97,14.80,0000 0000 0000 0000 000000
2014-09-29 12:43:00,0.03,0.23,0.00,22.90,26.25,28.92,9.49,38.49,1013.68,2041.99,3445.90,3263.62,3532.34,499.88,495.23,14.84,0000 0000 0000 0000 000000
2014-09-29 12:48:01,0.02,0.23,0.00,22.94,26.23,28.84,9.53,38.52,1013.68,2041.99,3445.23,3263.11,3532.02,500.41,495.72,14.88,0000 0000 0000 0000 000000
2014-09-29 12:53:02,0.00,0.23,0.00,22.93,26.22,28.83,9.49,38.52,1013.67,2041.99,3445.00,3263.00,3532.00,499.58,494.92,14.93,0000 0000 0000 0000 000000
2014-09-29 12:58:03,0.00,0.23,0.00,22.77,26.22,28.79,9.50,38.45,1013.65,2041.99,3444.90,3263.00,3531.92,499.83,495.29,14.97,0000 0000 0000 0000 000000
2014-09-29 13:03:04,0.02,0.23,0.00,22.70,26.22,28.78,9.53,38.64,1013.67,2041.99,3444.17,3262.98,3531.29,499.87,495.69,15.01,0000 0000 0000 0000 000000